1488906000.09,20430,9.94,72778.0,-8.95,-19.31,-16.89,0,*5D
1488906001.33,20431,9.88,72776.3,-8.95,-19.17,-16.89,0,*58
1488906002.56,20432,9.88,72774.0,-8.95,-19.07,-16.79,0,*55
1488906003.78,20433,9.88,72774.3,-8.93,-19.03,-16.79,0,*56
1488906005.01,20434,9.88,72772.3,-8.95,-19.17,-16.93,0,*56
1488906006.31,20435,9.88,72774.3,-8.95,-19.23,-17.07,0,*5C
1488906007.57,20436,9.88,72772.8,-8.93,-19.23,-17.17,0,*58
1488906008.86,20437,9.88,72770.3,-8.95,-19.23,-17.17,0,*5F
1488906010.13,20438,9.88,72768.5,-8.95,-19.17,-17.07,0,*56
1488906011.4,20439,9.88,72770.5,-8.95,-19.07,-17.07,0,*56
1488906012.67,20440,9.88,72770.5,-8.95,-19.07,-17.07,0,*58
1488906013.93,20441,9.88,72770.0,-8.95,-19.03,-17.21,0,*59
1488906015.19,20442,9.88,72770.8,-8.95,-18.99,-17.17,0,*5D
1488906016.42,20443,9.88,72772.0,-8.97,-19.03,-17.41,0,*5F
1488906017.63,20444,9.88,72770.5,-8.97,-19.03,-17.31,0,*5F
1488906018.9,20445,9.88,72770.3,-8.97,-18.93,-17.41,0,*51
1488906020.15,20446,9.88,72772.0,-8.97,-18.89,-17.41,0,*59
1488906021.42,20447,9.88,72772.0,-8.97,-18.93,-17.45,0,*57
1488906022.66,20448,9.88,72774.5,-8.97,-18.79,-17.45,0,*5C
1488906023.91,20449,9.88,72772.8,-8.97,-18.89,-17.55,0,*53
1488906025.15,20450,9.88,72770.0,-8.97,-18.89,-17.69,0,*54
1488906026.36,20451,9.88,72772.0,-8.97,-18.79,-17.69,0,*5A
1488906027.62,20452,9.88,72772.8,-8.99,-18.93,-17.73,0,*58
1488906028.85,20453,9.88,72774.5,-8.97,-18.89,-17.73,0,*5C
1488906030.08,20454,9.88,72770.5,-8.97,-18.89,-17.73,0,*5B
1488906031.32,20455,9.88,72770.8,-8.99,-18.79,-17.83,0,*54
1488906032.59,20456,9.88,72772.3,-8.97,-18.93,-17.97,0,*58
1488906033.83,20457,9.88,72768.8,-8.99,-19.03,-18.11,0,*5E
1488906035.07,20458,9.88,72774.0,-8.99,-19.07,-18.11,0,*55
1488906036.3,20459,9.88,72772.0,-8.99,-19.07,-18.21,0,*57
1488906037.57,20460,9.88,72772.3,-8.99,-18.93,-18.11,0,*52
1488906038.8,20461,9.88,72770.5,-8.99,-18.79,-18.17,0,*51
1488906040.06,20462,9.88,72768.8,-8.99,-18.59,-18.11,0,*56
1488906041.36,20463,9.88,72772.3,-8.99,-18.31,-17.97,0,*58
1488906042.62,20464,9.88,72774.8,-8.99,-17.93,-17.83,0,*5D
1488906043.88,20465,9.88,72770.3,-9.03,-18.35,-18.41,0,*5C
1488906045.14,20466,9.88,72770.3,-9.03,-18.49,-18.55,0,*51
1488906046.37,20467,9.88,72772.5,-9.03,-18.25,-18.41,0,*5F
1488906047.61,20468,9.88,72770.5,-8.99,-17.83,-18.17,0,*52
1488906048.84,20469,9.88,72772.8,-9.03,-18.25,-18.41,0,*51
1488906050.1,20470,9.88,72772.3,-9.03,-18.17,-18.35,0,*5B
1488906051.36,20471,9.88,72774.3,-9.03,-17.79,-18.07,0,*5C
1488906052.62,20472,9.88,72774.0,-9.03,-17.73,-18.01,0,*53
1488906053.88,20473,9.88,72774.5,-9.03,-18.25,-18.55,0,*5F
1488906055.14,20474,9.88,72778.8,-9.03,-18.55,-18.83,0,*54
1488906056.37,20475,9.88,72768.0,-9.05,-18.55,-18.83,0,*53
1488906057.6,20476,9.88,72772.5,-9.03,-18.83,-18.83,0,*5D
1488906058.87,20477,9.88,72776.3,-9.03,-19.27,-18.99,0,*58
1488906060.16,20478,9.88,72772.5,-8.99,-19.23,-18.93,0,*5B
1488906061.38,20479,9.88,72772.5,-9.05,-19.41,-19.07,0,*56
1488906062.65,20480,9.88,72772.8,-9.03,-19.57,-19.13,0,*54
1488906063.87,20481,9.88,72768.8,-9.05,-19.71,-19.17,0,*53
1488906065.12,20482,9.88,72774.8,-9.05,-19.71,-19.27,0,*53
1488906066.4,20483,9.88,72774.8,-9.03,-19.85,-19.27,0,*5F
1488906067.61,20484,9.88,72770.8,-9.05,-19.75,-19.17,0,*52
1488906068.85,20485,9.88,72770.0,-9.05,-19.85,-19.17,0,*5C
1488906070.06,20486,9.88,72772.0,-9.05,-19.91,-19.17,0,*5A
1488906071.32,20487,9.88,72774.8,-9.05,-19.85,-19.27,0,*5D
1488906072.56,20488,9.88,72772.8,-9.05,-19.85,-19.13,0,*55
1488906073.81,20489,9.88,72772.3,-9.03,-19.85,-19.07,0,*57
1488906075.03,20490,9.88,72770.5,-9.05,-19.75,-19.13,0,*53
1488906076.26,20491,9.88,72768.5,-9.05,-19.85,-19.13,0,*5D
1488906077.52,20492,9.88,72770.0,-9.07,-19.91,-19.31,0,*59
1488906078.77,20493,9.88,72772.5,-9.07,-20.05,-19.31,0,*5F
1488906080.01,20494,9.88,72772.3,-9.05,-19.91,-19.27,0,*5A
1488906081.23,20495,9.88,72774.8,-9.05,-19.91,-19.17,0,*58
1488906082.47,20496,9.88,72772.0,-9.05,-19.91,-19.31,0,*5F
1488906083.68,20497,9.88,72772.5,-9.09,-20.05,-19.47,0,*54
1488906084.91,20498,9.88,72774.0,-9.07,-19.95,-19.51,0,*51
1488906086.18,20499,9.88,72770.8,-9.07,-19.95,-19.61,0,*53
1488906087.42,20500,9.88,72772.8,-9.09,-19.91,-19.61,0,*58
1488906088.66,20501,9.88,72770.8,-9.05,-19.75,-19.57,0,*5A
1488906089.91,20502,9.88,72772.3,-9.09,-19.91,-19.61,0,*5A
1488906091.14,20503,9.88,72774.3,-9.07,-19.91,-19.75,0,*50
1488906092.39,20504,9.88,72774.8,-9.09,-19.95,-19.81,0,*56
1488906093.6,20505,9.88,72774.5,-9.09,-19.91,-19.75,0,*58
1488906094.84,20506,9.88,72772.3,-9.07,-19.75,-19.91,0,*55
1488906096.12,20507,9.88,72776.5,-9.07,-19.65,-19.81,0,*54
1488906097.34,20508,9.88,72774.8,-9.09,-19.95,-20.05,0,*5C
1488906098.56,20509,9.88,72774.0,-9.09,-20.09,-20.05,0,*52
1488906099.77,20510,9.88,72772.8,-9.09,-20.05,-20.09,0,*5A
1488906101.0,20511,9.88,72772.5,-9.07,-20.09,-20.09,0,*59
1488906102.24,20512,9.88,72772.5,-9.09,-20.09,-20.19,0,*55
1488906103.46,20513,9.88,72774.3,-9.09,-19.95,-20.09,0,*5A
1488906104.69,20514,9.88,72772.5,-9.09,-19.95,-19.95,0,*52
1488906105.9,20515,9.88,72774.8,-9.09,-19.91,-20.05,0,*54
1488906107.17,20516,9.88,72774.0,-9.11,-19.85,-20.25,0,*59
1488906108.42,20517,9.88,72776.8,-9.11,-19.95,-20.43,0,*59
1488906109.71,20518,9.88,72774.5,-9.11,-20.15,-20.49,0,*5E
1488906110.98,20519,9.88,72776.3,-9.11,-20.15,-20.59,0,*5E
1488906112.25,20520,9.88,72774.0,-9.11,-20.15,-20.59,0,*54
1488906113.49,20521,9.88,72774.8,-9.09,-20.25,-20.53,0,*55
1488906114.72,20522,9.88,72774.5,-9.09,-20.39,-20.59,0,*51
1488906115.97,20523,9.88,72772.5,-9.11,-20.43,-20.73,0,*5C
1488906117.24,20524,9.88,72774.5,-9.11,-20.43,-20.79,0,*51
1488906118.49,20525,9.88,72778.0,-9.11,-20.59,-20.93,0,*5F
1488906119.76,20526,9.88,72774.3,-9.11,-20.63,-21.03,0,*5D
1488906121.02,20527,9.88,72774.3,-9.13,-20.79,-21.03,0,*55
1488906122.23,20528,9.88,72774.8,-9.13,-20.73,-21.09,0,*5A
1488906123.44,20529,9.88,72776.8,-9.13,-20.73,-20.93,0,*59
1488906124.67,20530,9.88,72776.3,-9.13,-20.79,-21.09,0,*59
1488906125.94,20531,9.88,72772.8,-9.13,-20.79,-21.23,0,*50
1488906127.21,20532,9.88,72776.0,-9.13,-20.79,-21.23,0,*53
1488906128.46,20533,9.88,72776.0,-9.13,-20.89,-21.27,0,*59
1488906129.71,20534,9.88,72774.3,-9.13,-20.89,-21.23,0,*5A
1488906130.98,20535,9.88,72772.8,-9.15,-21.13,-21.27,0,*5B
1488906132.21,20536,9.88,72776.0,-9.13,-21.17,-21.57,0,*5D
1488906133.48,20537,9.88,72772.3,-9.13,-21.23,-21.67,0,*58
1488906134.69,20538,9.88,72774.3,-9.13,-21.39,-21.73,0,*59
1488906135.93,20539,9.88,72772.0,-9.13,-21.43,-21.87,0,*5E
1488906137.2,20540,9.88,72776.3,-9.15,-21.63,-22.17,0,*5E
1488906138.46,20541,9.88,72778.8,-9.17,-21.63,-22.21,0,*58
1488906139.69,20542,9.88,72778.8,-9.15,-21.73,-22.37,0,*5F
1488906140.96,20543,9.88,72776.3,-9.15,-21.87,-22.37,0,*55
1488906142.19,20544,9.88,72774.5,-9.15,-22.07,-22.37,0,*59
1488906143.45,20545,9.88,72776.3,-9.15,-22.17,-22.37,0,*59
1488906144.71,20546,9.88,72776.8,-9.15,-22.21,-22.37,0,*5F
1488906145.97,20547,9.88,72774.8,-9.15,-22.31,-22.37,0,*5F
1488906147.21,20548,9.88,72776.5,-9.17,-22.53,-22.41,0,*57
1488906148.49,20549,9.88,72776.3,-9.17,-22.57,-22.31,0,*55
1488906149.76,20550,9.88,72778.5,-9.15,-22.53,-22.17,0,*5F
1488906151.02,20551,9.88,72776.5,-9.15,-22.57,-22.21,0,*5F
1488906152.31,20552,9.88,72778.3,-9.15,-22.73,-22.21,0,*5A
1488906153.57,20553,9.88,72774.0,-9.17,-22.83,-22.21,0,*56
1488906154.84,20554,9.88,72776.5,-9.17,-22.87,-22.17,0,*50
1488906156.11,20555,9.88,72778.8,-9.17,-22.97,-22.17,0,*50
1488906157.35,20556,9.88,72774.3,-9.17,-22.97,-22.07,0,*52
1488906158.65,20557,9.88,72776.3,-9.17,-23.03,-22.17,0,*5E
1488906159.89,20558,9.88,72772.8,-9.17,-22.97,-22.07,0,*5C
1488906161.13,20559,9.88,72778.0,-9.17,-23.13,-22.03,0,*54
1488906162.39,20560,9.88,72772.8,-9.17,-23.19,-22.07,0,*50
1488906163.6,20561,9.88,72776.0,-9.19,-23.39,-22.07,0,*5D
1488906164.82,20562,9.88,72774.8,-9.19,-23.39,-21.93,0,*50
1488906166.03,20563,9.88,72778.0,-9.19,-23.39,-21.93,0,*51
1488906167.25,20564,9.88,72778.0,-9.19,-23.43,-21.77,0,*51
1488906168.47,20565,9.88,72778.8,-9.19,-23.43,-21.77,0,*50
1488906169.72,20566,9.88,72774.3,-9.19,-23.43,-21.67,0,*52
1488906170.94,20567,9.88,72774.0,-9.19,-23.43,-21.63,0,*57
1488906172.18,20568,9.88,72776.5,-9.19,-23.43,-21.53,0,*5B
1488906173.4,20569,9.88,72772.0,-9.19,-23.43,-21.47,0,*5F
1488906174.66,20570,9.88,72772.8,-9.21,-23.39,-21.33,0,*52
1488906175.93,20571,9.88,72772.8,-9.19,-23.23,-21.03,0,*50
1488906177.2,20572,9.88,72776.3,-9.21,-23.03,-20.89,0,*59
1488906178.47,20573,9.88,72776.8,-9.21,-22.73,-20.73,0,*5B
1488906179.76,20574,9.88,72772.8,-9.21,-22.21,-20.53,0,*59
1488906181.01,20575,9.88,72778.3,-9.21,-22.37,-20.43,0,*5E
1488906182.25,20576,9.88,72776.8,-9.23,-22.31,-20.39,0,*54
1488906183.49,20577,9.88,72778.0,-9.21,-22.11,-20.05,0,*5A
1488906184.76,20578,9.88,72778.5,-9.21,-21.63,-19.65,0,*5F
1488906186.0,20579,9.88,72778.5,-9.21,-21.77,-19.75,0,*5A
1488906187.23,20580,9.88,72778.5,-9.21,-21.63,-19.75,0,*59
1488906188.5,20581,9.88,72778.3,-9.21,-21.47,-19.65,0,*5F
1488906189.76,20582,9.88,72774.8,-9.21,-20.99,-19.47,0,*5E
1488906191.05,20583,9.88,72772.8,-9.21,-20.83,-19.31,0,*55
1488906192.29,20584,9.88,72776.8,-9.21,-20.73,-19.13,0,*5D
1488906193.52,20585,9.88,72782.3,-9.21,-20.69,-18.99,0,*54
1488906194.75,20586,9.88,72776.0,-9.23,-20.63,-18.89,0,*5E
1488906195.96,20587,9.88,72778.5,-9.23,-20.73,-18.73,0,*5B
1488906197.18,20588,9.88,72776.3,-9.23,-20.73,-18.59,0,*5C
1488906198.39,20589,9.88,72776.0,-9.23,-20.63,-18.45,0,*51
1488906199.61,20590,9.88,72776.3,-9.27,-20.59,-18.17,0,*53
1488906200.83,20591,9.88,72776.3,-9.23,-20.43,-18.11,0,*5B
1488906202.03,20592,9.88,72778.5,-9.23,-20.29,-17.87,0,*54
1488906203.25,20593,9.88,72776.5,-9.27,-19.99,-17.69,0,*50
1488906204.48,20594,9.88,72776.0,-9.23,-19.81,-17.49,0,*58
1488906205.72,20595,9.88,72774.8,-9.23,-19.57,-17.35,0,*59
1488906206.97,20596,9.88,72778.0,-9.27,-19.51,-17.21,0,*5D
1488906208.17,20597,9.88,72780.8,-9.23,-19.03,-16.97,0,*53
1488906209.47,20598,9.88,72778.0,-9.21,-18.89,-17.07,0,*55
1488906210.71,20599,9.88,72778.3,-9.23,-18.79,-17.07,0,*59
1488906211.95,20600,9.88,72778.0,-9.23,-18.79,-17.11,0,*5D
1488906213.2,20601,9.88,72778.8,-9.27,-18.73,-17.07,0,*55
1488906214.43,20602,9.88,72778.8,-9.23,-18.59,-16.97,0,*52
1488906215.64,20603,9.88,72776.5,-9.23,-18.45,-16.93,0,*5A
1488906216.85,20604,9.88,72776.5,-9.23,-18.45,-16.79,0,*59
1488906218.07,20605,9.88,72778.8,-9.27,-18.25,-16.55,0,*54
1488906219.28,20606,9.88,72778.8,-9.27,-18.11,-16.45,0,*51
1488906220.48,20607,9.88,72780.5,-9.23,-18.11,-16.45,0,*54
1488906221.72,20608,9.88,72780.5,-9.27,-17.87,-16.31,0,*5C
1488906222.96,20609,9.88,72776.8,-9.23,-17.83,-16.17,0,*59
1488906224.19,20610,9.88,72778.3,-9.23,-17.69,-16.31,0,*51
1488906225.46,20611,9.88,72780.5,-9.23,-17.97,-16.31,0,*51
1488906226.67,20612,9.88,72778.5,-9.27,-17.87,-16.37,0,*51
1488906227.94,20613,9.88,72778.0,-9.23,-17.59,-16.17,0,*55
1488906229.2,20614,9.88,72778.3,-9.23,-17.41,-16.09,0,*54
1488906230.47,20615,9.88,72778.3,-9.27,-17.55,-16.09,0,*54
1488906231.72,20616,9.88,72778.3,-9.23,-17.49,-16.09,0,*5E
1488906232.98,20617,9.88,72776.8,-9.23,-17.25,-16.09,0,*55
1488906234.25,20618,9.88,72778.8,-9.23,-17.25,-16.09,0,*5A
1488906235.49,20619,9.88,72778.3,-9.23,-17.35,-16.09,0,*5A
1488906236.73,20620,9.88,72778.5,-9.27,-16.97,-15.89,0,*56
1488906237.95,20621,9.88,72776.8,-9.27,-16.79,-16.03,0,*56
1488906239.21,20622,9.88,72780.3,-9.23,-17.11,-16.17,0,*5B
1488906240.48,20623,9.88,72782.0,-9.27,-17.21,-16.17,0,*5D
1488906241.76,20624,9.88,72778.3,-9.27,-17.25,-16.17,0,*5E
1488906243.03,20625,9.88,72780.5,-9.27,-17.25,-16.17,0,*5F
1488906244.29,20626,9.88,72776.5,-9.23,-17.21,-16.09,0,*53
1488906245.57,20627,9.88,72778.5,-9.27,-17.25,-16.09,0,*52
1488906246.83,20628,9.88,72776.5,-9.23,-17.11,-16.09,0,*5E
1488906248.09,20629,9.88,72776.5,-9.23,-17.21,-16.09,0,*5C
1488906249.33,20630,9.88,72774.8,-9.27,-17.11,-16.03,0,*59
1488906250.58,20631,9.88,72780.0,-9.27,-17.21,-16.03,0,*5B
1488906251.82,20632,9.88,72778.5,-9.27,-17.21,-15.95,0,*54
1488906253.06,20633,9.88,72776.0,-9.23,-17.11,-15.95,0,*52
1488906254.31,20634,9.88,72776.8,-9.27,-17.07,-15.95,0,*56
1488906255.57,20635,9.88,72776.3,-9.27,-17.07,-15.89,0,*5A
1488906256.78,20636,9.88,72772.5,-9.27,-16.93,-15.67,0,*55
1488906258.02,20637,9.88,72774.3,-9.23,-16.69,-15.67,0,*55
1488906259.24,20638,9.88,72778.0,-9.27,-16.83,-15.75,0,*59
1488906260.45,20639,9.88,72778.3,-9.27,-16.93,-15.67,0,*5A
1488906261.66,20640,9.88,72774.8,-9.27,-16.93,-15.63,0,*50
1488906262.87,20641,9.88,72774.0,-9.23,-16.97,-15.63,0,*51
1488906264.08,20642,9.88,72780.3,-9.27,-16.93,-15.63,0,*52
1488906265.3,20643,9.88,72778.5,-9.27,-16.93,-15.63,0,*53
1488906266.55,20644,9.88,72776.5,-9.27,-16.69,-15.49,0,*59
1488906267.82,20645,9.88,72776.5,-9.27,-16.51,-15.43,0,*59
1488906269.08,20646,9.88,72776.3,-9.27,-16.23,-15.35,0,*5E
1488906270.32,20647,9.88,72772.8,-9.23,-15.95,-15.21,0,*50
1488906271.58,20648,9.88,72778.8,-9.27,-15.43,-14.93,0,*58
1488906272.84,20649,9.88,72776.8,-9.23,-15.21,-14.79,0,*5D
1488906274.09,20650,9.88,72778.3,-9.23,-15.21,-14.79,0,*55
1488906275.31,20651,9.88,72776.0,-9.27,-15.29,-14.89,0,*57
1488906276.58,20652,9.88,72776.3,-9.27,-15.57,-15.21,0,*5E
1488906277.8,20653,9.88,72776.8,-9.23,-15.63,-15.29,0,*54
1488906279.02,20654,9.88,72776.8,-9.27,-15.67,-15.29,0,*53
1488906280.25,20655,9.88,72776.3,-9.27,-15.63,-15.29,0,*56
1488906281.46,20656,9.88,72778.5,-9.27,-15.49,-15.15,0,*52
1488906282.7,20657,9.88,72776.3,-9.23,-15.29,-15.01,0,*54
1488906283.96,20658,9.88,72778.0,-9.27,-15.21,-15.01,0,*57
1488906285.19,20659,9.88,72776.5,-9.23,-15.21,-15.15,0,*57
1488906286.42,20660,9.88,72776.3,-9.23,-15.21,-15.29,0,*52
1488906287.67,20661,9.88,72774.5,-9.27,-15.29,-15.35,0,*52
1488906288.9,20662,9.88,72774.5,-9.23,-15.15,-15.43,0,*5B
1488906290.14,20663,9.88,72778.0,-9.23,-15.01,-15.49,0,*55
1488906291.38,20664,9.88,72778.3,-9.23,-15.01,-15.49,0,*52
1488906292.63,20665,9.88,72776.8,-9.27,-15.01,-15.57,0,*58
1488906293.87,20666,9.88,72776.5,-9.23,-14.89,-15.57,0,*5E
1488906295.08,20667,9.88,72780.5,-9.27,-14.89,-15.67,0,*58
1488906296.36,20668,9.88,72774.5,-9.21,-14.83,-15.75,0,*58
1488906297.62,20669,9.88,72774.8,-9.21,-14.61,-15.85,0,*5A
1488906298.87,20670,9.88,72776.8,-9.23,-14.47,-15.95,0,*55
1488906300.08,20671,9.88,72778.8,-9.23,-14.33,-16.03,0,*5B
1488906301.3,20672,9.88,72780.0,-9.27,-14.29,-15.95,0,*5B
1488906302.57,20673,9.88,72780.0,-9.23,-14.05,-15.81,0,*55
1488906303.81,20674,9.88,72780.3,-9.23,-13.93,-15.81,0,*5A
1488906305.08,20675,9.88,72780.0,-9.23,-14.01,-15.89,0,*5F
1488906306.32,20676,9.88,72776.5,-9.23,-14.15,-16.23,0,*5A
1488906307.56,20677,9.88,72780.5,-9.23,-14.43,-16.55,0,*59
1488906308.85,20678,9.88,72782.0,-9.21,-14.51,-16.65,0,*54
1488906310.12,20679,9.88,72782.8,-9.23,-14.47,-16.65,0,*50
1488906311.38,20680,9.88,72780.3,-9.23,-14.55,-16.69,0,*59
1488906312.62,20681,9.88,72780.3,-9.23,-14.29,-16.69,0,*53
1488906313.86,20682,9.88,72780.8,-9.23,-14.33,-17.07,0,*52
1488906315.13,20683,9.88,72780.8,-9.21,-14.37,-17.21,0,*51
1488906316.37,20684,9.88,72780.0,-9.23,-14.33,-17.11,0,*53
1488906317.57,20685,9.88,72778.5,-9.23,-14.33,-17.49,0,*5F
1488906318.85,20686,9.88,72782.3,-9.23,-14.01,-17.07,0,*57
1488906320.12,20687,9.88,72780.8,-9.23,-14.05,-17.41,0,*50
1488906321.36,20688,9.88,72780.8,-9.27,-14.75,-18.11,0,*56
1488906322.56,20689,9.88,72782.5,-9.23,-15.07,-18.41,0,*52
1488906323.79,20690,9.88,72780.3,-9.23,-15.21,-18.65,0,*58
1488906325.03,20691,9.88,72780.8,-9.21,-15.25,-18.73,0,*58
1488906326.26,20692,9.88,72780.5,-9.23,-15.49,-18.93,0,*5D
1488906327.46,20693,9.88,72780.3,-9.23,-15.63,-19.07,0,*58
1488906328.7,20694,9.88,72780.3,-9.27,-15.75,-19.23,0,*5A
1488906329.95,20695,9.88,72778.3,-9.27,-15.89,-19.37,0,*5D
1488906331.19,20696,9.88,72776.5,-9.23,-16.03,-19.57,0,*5D
1488906332.46,20697,9.88,72782.3,-9.23,-16.09,-19.57,0,*56
1488906333.71,20698,9.88,72782.8,-9.23,-16.31,-19.81,0,*59
1488906334.93,20699,9.88,72778.3,-9.27,-16.55,-19.99,0,*57
1488906336.17,20700,9.88,72780.3,-9.23,-16.69,-20.09,0,*5E
1488906337.41,20701,9.88,72776.8,-9.27,-16.83,-20.15,0,*52
1488906338.63,20702,9.88,72782.0,-9.27,-16.93,-20.29,0,*5F
1488906339.87,20703,9.88,72782.5,-9.23,-17.11,-20.39,0,*50
1488906341.11,20704,9.88,72780.8,-9.27,-17.25,-20.63,0,*5B
1488906342.37,20705,9.88,72780.0,-9.23,-17.55,-20.79,0,*52
1488906343.59,20706,9.88,72780.8,-9.23,-17.69,-20.89,0,*51
1488906344.82,20707,9.88,72780.8,-9.23,-17.73,-21.03,0,*58
1488906346.05,20708,9.88,72776.3,-9.27,-17.87,-21.17,0,*5D
1488906347.28,20709,9.81,72772.8,-9.27,-18.11,-21.33,0,*5A
1488906348.5,20710,9.88,72782.5,-9.27,-18.25,-21.43,0,*52
1488906349.74,20711,9.88,72776.8,-9.27,-18.45,-21.53,0,*54
1488906350.98,20712,9.88,72780.3,-9.27,-18.65,-21.67,0,*52
1488906352.2,20713,9.88,72780.3,-9.27,-18.79,-21.73,0,*5B
1488906353.44,20714,9.88,72778.8,-9.27,-18.93,-21.73,0,*58
1488906354.71,20715,9.88,72780.5,-9.27,-19.31,-21.87,0,*5B
1488906355.93,20716,9.88,72780.0,-9.27,-19.37,-22.03,0,*51
1488906357.18,20717,9.88,72782.5,-9.27,-19.65,-22.03,0,*57
1488906358.44,20718,9.88,72782.3,-9.27,-19.65,-21.97,0,*56
1488906359.69,20719,9.88,72782.5,-9.29,-19.91,-22.07,0,*58
1488906360.97,20720,9.88,72778.5,-9.29,-20.15,-22.21,0,*50
1488906362.23,20721,9.88,72782.0,-9.29,-20.35,-22.37,0,*54
1488906363.49,20722,9.88,72780.0,-9.29,-20.53,-22.37,0,*57
1488906364.76,20723,9.88,72776.0,-9.29,-20.53,-22.53,0,*54
1488906366.01,20724,9.88,72780.8,-9.31,-20.83,-22.53,0,*57
1488906367.25,20725,9.88,72780.0,-9.29,-21.09,-22.57,0,*58
1488906368.46,20726,9.88,72780.3,-9.31,-21.13,-22.67,0,*5A
1488906369.7,20727,9.88,72778.0,-9.31,-21.27,-22.67,0,*5C
1488906370.92,20728,9.88,72780.5,-9.31,-21.43,-22.83,0,*5B
1488906372.16,20729,9.88,72782.0,-9.31,-21.57,-22.83,0,*5F
1488906373.4,20730,9.88,72782.3,-9.29,-21.73,-22.97,0,*5D
1488906374.65,20731,9.88,72780.0,-9.31,-21.87,-22.97,0,*5E
1488906375.89,20732,9.88,72782.3,-9.31,-21.93,-23.03,0,*54
1488906377.19,20733,9.88,72780.3,-9.33,-22.21,-23.23,0,*5F
1488906378.43,20734,9.88,72780.8,-9.35,-22.37,-23.33,0,*58
1488906379.67,20735,9.88,72782.3,-9.31,-22.53,-23.29,0,*54
1488906380.92,20736,9.88,72778.0,-9.31,-22.57,-23.29,0,*53
1488906382.14,20737,9.88,72782.5,-9.31,-22.83,-23.43,0,*57
1488906383.37,20738,9.88,72780.3,-9.31,-22.87,-23.53,0,*5D
1488906384.64,20739,9.88,72782.5,-9.31,-23.03,-23.53,0,*51
1488906385.92,20740,9.88,72782.3,-9.33,-23.33,-23.69,0,*57
1488906387.15,20741,9.88,72780.5,-9.35,-23.39,-23.69,0,*5A
1488906388.42,20742,9.88,72780.8,-9.33,-23.53,-23.75,0,*5E
1488906389.67,20743,9.88,72780.8,-9.35,-23.53,-23.75,0,*59
1488906390.9,20744,9.88,72784.8,-9.35,-23.69,-23.75,0,*57
1488906392.19,20745,9.88,72780.8,-9.33,-23.69,-23.85,0,*5F
1488906393.42,20746,9.88,72780.8,-9.35,-23.85,-23.89,0,*54
1488906394.66,20747,9.88,72778.8,-9.33,-23.89,-23.89,0,*5F
1488906395.9,20748,9.88,72782.3,-9.35,-24.15,-23.89,0,*54
1488906397.16,20749,9.88,72780.8,-9.35,-24.15,-23.99,0,*54
1488906398.43,20750,9.88,72782.5,-9.35,-24.21,-23.99,0,*5B
1488906399.65,20751,9.88,72782.8,-9.35,-24.31,-24.05,0,*59
1488906400.94,20752,9.88,72780.3,-9.37,-24.41,-24.11,0,*5A
1488906402.19,20753,9.88,72782.5,-9.37,-24.51,-24.05,0,*5F
1488906403.44,20754,9.88,72784.5,-9.37,-24.51,-24.05,0,*58
1488906404.69,20755,9.88,72782.0,-9.37,-24.51,-24.05,0,*59
1488906405.9,20756,9.88,72782.5,-9.39,-24.51,-23.79,0,*58
1488906407.17,20757,9.88,72782.0,-9.39,-24.25,-23.53,0,*52
1488906408.43,20758,9.88,72780.0,-9.39,-24.11,-23.53,0,*5A
1488906409.68,20759,9.88,72784.3,-9.39,-24.21,-23.59,0,*52
1488906410.97,20760,9.88,72780.0,-9.37,-24.21,-23.53,0,*5C
1488906412.21,20761,9.88,72784.0,-9.39,-23.95,-23.43,0,*5A
1488906413.45,20762,9.88,72782.5,-9.39,-24.05,-23.65,0,*53
1488906414.67,20763,9.88,72780.3,-9.39,-24.05,-23.79,0,*5F
1488906415.88,20764,9.88,72782.8,-9.39,-24.05,-23.79,0,*58
1488906417.12,20765,9.88,72782.0,-9.39,-24.21,-23.79,0,*5F
1488906418.36,20766,9.88,72782.3,-9.39,-24.25,-23.89,0,*57
1488906419.6,20767,9.88,72782.5,-9.39,-24.35,-23.95,0,*5A
1488906420.86,20768,9.88,72782.5,-9.39,-24.41,-23.95,0,*56
1488906422.1,20769,9.88,72782.8,-9.39,-24.51,-23.95,0,*56
1488906423.37,20770,9.88,72786.0,-9.41,-24.57,-23.99,0,*5B
1488906424.63,20771,9.88,72784.5,-9.41,-24.57,-23.95,0,*56
1488906425.89,20772,9.88,72780.3,-9.41,-24.57,-23.95,0,*55
1488906427.13,20773,9.88,72786.0,-9.43,-24.57,-23.99,0,*5A
1488906428.4,20774,9.88,72780.8,-9.41,-24.57,-23.95,0,*53
1488906429.66,20775,9.88,72780.5,-9.41,-24.57,-23.95,0,*52
1488906430.9,20776,9.88,72780.8,-9.43,-24.61,-23.95,0,*56
1488906432.13,20777,9.88,72782.5,-9.43,-24.61,-23.95,0,*57
1488906433.35,20778,9.88,72786.0,-9.43,-24.47,-23.79,0,*5E
1488906434.58,20779,9.88,72782.0,-9.43,-24.47,-23.79,0,*5F
1488906435.85,20780,9.88,72780.8,-9.43,-24.41,-23.65,0,*52
1488906437.11,20781,9.88,72782.5,-9.43,-24.41,-23.65,0,*53
1488906438.38,20782,9.88,72786.3,-9.43,-24.41,-23.65,0,*50
1488906439.63,20783,9.88,72784.0,-9.43,-24.31,-23.49,0,*58
1488906440.91,20784,9.88,72784.3,-9.43,-24.25,-23.49,0,*5A
1488906442.19,20785,9.88,72784.3,-9.41,-24.25,-23.43,0,*53
1488906443.43,20786,9.88,72784.8,-9.43,-24.15,-23.43,0,*51
1488906444.7,20787,9.88,72786.0,-9.43,-24.15,-23.33,0,*57
1488906445.97,20788,9.88,72784.0,-9.43,-24.25,-23.33,0,*5B
1488906447.24,20789,9.88,72784.5,-9.43,-24.11,-23.33,0,*5D
1488906448.5,20790,9.88,72782.8,-9.43,-23.99,-23.29,0,*59
1488906449.77,20791,9.88,72782.3,-9.41,-24.11,-23.13,0,*54
1488906451.04,20792,9.88,72780.5,-9.45,-24.05,-23.19,0,*5C
1488906452.29,20793,9.88,72780.5,-9.43,-23.95,-22.97,0,*52
1488906453.56,20794,9.88,72780.0,-9.45,-23.85,-22.87,0,*53
1488906454.81,20795,9.88,72784.8,-9.49,-23.75,-22.73,0,*5A
1488906456.08,20796,9.88,72786.3,-9.45,-23.75,-22.73,0,*55
1488906457.33,20797,9.88,72786.8,-9.49,-23.69,-22.53,0,*57
1488906458.59,20798,9.88,72786.5,-9.45,-23.53,-22.41,0,*5E
1488906459.81,20799,9.88,72786.0,-9.49,-23.39,-22.41,0,*5F
1488906461.07,20800,9.88,72784.5,-9.45,-23.23,-22.27,0,*57
1488906462.31,20801,9.88,72782.3,-9.45,-23.09,-22.27,0,*5E
1488906463.6,20802,9.88,72782.3,-9.45,-23.03,-22.21,0,*51
1488906464.87,20803,9.88,72784.8,-9.45,-22.73,-22.27,0,*50
1488906466.13,20804,9.88,72784.5,-9.45,-22.73,-22.27,0,*57
1488906467.38,20805,9.88,72780.3,-9.49,-22.77,-22.41,0,*5E
1488906468.61,20806,9.88,72784.8,-9.49,-22.87,-22.57,0,*55
1488906469.84,20807,9.88,72782.0,-9.49,-23.09,-22.57,0,*53
1488906471.08,20808,9.88,72784.8,-9.45,-23.09,-22.53,0,*54
1488906472.31,20809,9.88,72784.0,-9.49,-23.09,-22.37,0,*5B
1488906473.57,20810,9.88,72782.3,-9.49,-23.19,-22.27,0,*53
1488906474.82,20811,9.88,72786.5,-9.49,-23.03,-22.27,0,*59
1488906476.05,20812,9.88,72786.5,-9.49,-23.09,-22.11,0,*55
1488906477.31,20813,9.88,72786.0,-9.49,-23.03,-21.93,0,*57
1488906478.54,20814,9.88,72784.8,-9.51,-22.93,-21.83,0,*50
1488906479.75,20815,9.88,72786.8,-9.51,-22.73,-21.73,0,*50
1488906480.98,20816,9.88,72786.5,-9.51,-22.63,-21.67,0,*57
1488906482.21,20817,9.88,72784.5,-9.51,-22.11,-21.67,0,*53
1488906483.43,20818,9.88,72786.5,-9.51,-21.87,-21.73,0,*55
1488906484.63,20819,9.88,72784.0,-9.51,-21.73,-22.03,0,*5B
1488906485.89,20820,9.88,72786.0,-9.51,-21.67,-22.17,0,*51
1488906487.09,20821,9.88,72784.3,-9.51,-21.73,-22.41,0,*56
1488906488.34,20822,9.88,72786.8,-9.53,-21.83,-22.57,0,*5F
1488906489.57,20823,9.88,72784.5,-9.51,-21.97,-22.63,0,*5E
1488906490.79,20824,9.88,72782.3,-9.51,-22.03,-22.77,0,*52
1488906492.05,20825,9.88,72784.8,-9.51,-22.17,-22.77,0,*56
1488906493.28,20826,9.88,72782.8,-9.51,-22.27,-22.77,0,*56
1488906494.5,20827,9.88,72784.8,-9.51,-22.27,-22.77,0,*57
1488906495.7,20828,9.88,72784.0,-9.51,-22.41,-22.83,0,*53
1488906496.93,20829,9.88,72784.5,-9.53,-22.41,-22.83,0,*50
1488906498.16,20830,9.88,72786.0,-9.51,-22.31,-22.83,0,*5D
1488906499.41,20831,9.88,72784.3,-9.53,-22.27,-22.77,0,*52
1488906500.64,20832,9.88,72784.8,-9.51,-22.27,-22.73,0,*57
1488906501.89,20833,9.88,72786.5,-9.51,-22.17,-22.77,0,*51
1488906503.12,20834,9.88,72784.5,-9.51,-22.17,-22.63,0,*53
1488906504.33,20835,9.88,72786.0,-9.51,-22.11,-22.57,0,*53
1488906505.52,20836,9.88,72786.0,-9.51,-22.11,-22.41,0,*57